Vertical_Velocity
4 -2 -0 1 -5 -0 -2 -1 -1 -1 -1 -1 -2 -0 -0 -1 -2 -1 -1 -1 -1 -1 -1 -0 -0 -1 5 -1 28 -5 -4 0 -4 -3 -11 5 9 5 1 -1 1 -2 1 -0 -2 -4 1
6 0 -2 -1 -2 -3 -0 2 -4 1 -3 -1 -1 1 -1 -2 -2 -1 -2 -1 -2 -1 2 0 -2 2 3 7 -20 -5 -2 -0 29 18 4 10 14 -4 -0 1 1 -3 -1 0 0 2 -1
3 -0 0 -2 -1 -3 1 -2 -0 -2 -1 -2 -1 -1 -2 -0 -1 -2 -2 -2 -1 2 2 -0 -2 2 -0 15 -5 13 -9 -9 -16 0 16 -9 3 1 -5 -0 1 -2 3 3 2 -1 1
4 1 -1 -0 -4 -1 2 -5 1 0 -1 -1 -0 -3 -0 0 -2 -2 -0 1 3 0 -1 1 -0 1 -1 -8 -12 -18 6 6 -9 -5 -9 -2 -11 11 9 1 3 3 7 6 6 1 1
2 -0 1 -0 -4 2 -2 -3 1 -2 -1 1 -1 2 -1 0 0 1 2 2 2 1 2 0 2 1 11 -14 -1 4 -14 22 -0 -2 -5 -5 -8 1 -3 3 7 4 -0 2 8 -1 1
1 -2 2 -1 -2 2 -5 -0 -2 -1 -1 0 0 -2 1 1 1 2 0 1 2 4 4 -1 4 18 6 16 -6 -5 1 -14 10 -2 1 -1 4 2 6 7 5 2 3 2 0 7 3
3 -2 3 -4 -0 -1 -2 0 -5 -1 4 0 2 1 -0 -1 -0 3 3 6 -1 0 -0 24 -9 4 -3 -7 -7 10 -11 0 -5 4 4 -3 9 3 6 2 3 2 -0 1 5 4 1
2 -1 2 -3 -0 -3 -2 3 2 -1 1 2 2 1 -2 -0 1 3 2 1 5 21 3 -10 -11 -9 -15 9 -0 4 8 10 1 0 -0 5 3 4 0 -1 1 -0 1 -2 3 1 6
0 -0 1 1 -2 -4 1 -2 -3 2 2 5 1 -1 -0 1 1 -0 -3 9 -2 -5 -1 7 1 -1 -2 18 3 0 -3 -1 1 3 0 -1 12 -1 -0 -0 -0 1 2 0 7 -1 -1
-1 0 -0 2 -2 -2 0 -1 1 1 0 -1 0 -1 -1 -1 -4 -3 10 0 -1 -3 3 8 5 1 5 7 2 -2 -6 5 -1 2 -0 2 2 0 -0 1 4 0 2 1 1 5 2
0 1 -1 2 -3 -0 -2 -1 1 -1 -1 0 3 3 1 4 1 9 1 3 -3 -4 5 0 4 -10 -5 8 3 8 -7 1 0 0 6 9 -0 -1 -1 5 2 8 1 2 1 1 7
1 -0 -1 1 -4 -1 -3 -1 2 -2 -2 2 2 1 0 -2 -5 2 -5 -6 -4 3 3 4 0 3 0 2 1 -0 -1 -9 -5 -1 -2 3 -1 -3 6 -1 1 1 5 3 1 4 2
1 -1 -0 1 -3 -3 -2 1 1 -2 -1 1 2 1 2 -6 21 -0 -3 -5 7 3 9 6 1 2 -1 1 3 0 0 1 6 5 2 4 2 2 1 4 3 -1 -1 -0 1 3 -3
0 -1 0 1 -3 -2 -0 -1 -0 -1 -1 1 1 -3 -2 -9 -6 -1 -3 11 7 -1 -1 3 -1 3 -3 -1 3 0 2 0 -2 1 1 -0 13 1 2 4 9 1 6 1 2 2 2
0 -0 -0 -1 -1 -2 -2 1 -0 -2 0 1 -0 -1 -5 -4 -2 -1 9 1 -8 -0 -3 -1 8 2 2 1 1 -3 -1 0 3 2 3 1 6 4 -2 0 7 2 -4 5 1 1 1
-1 -0 -0 -1 0 -2 -1 2 -0 -2 2 0 -4 -8 12 -7 -4 -1 7 -2 3 2 -0 4 -1 3 -1 1 2 1 -1 4 2 1 1 4 4 2 2 3 3 -1 3 2 -1 0 -1
-1 -2 0 -0 0 -2 3 2 -1 -1 1 3 0 8 -0 -8 -1 6 0 -2 0 1 6 4 0 -0 1 -1 -1 1 4 8 -0 2 -2 1 3 6 7 -0 5 3 1 -1 3 0 1
-2 -1 1 0 -1 1 0 2 -0 2 1 -0 -5 7 0 -5 8 -2 1 -1 1 0 -3 -1 -0 -1 -1 -0 -0 -1 -0 2 -1 1 -0 4 0 -0 6 4 1 1 2 1 0 1 1
-0 0 0 -0 0 2 0 3 1 1 -4 2 1 -1 4 -2 1 -0 2 1 1 2 -0 1 -0 -0 0 -1 -4 -3 0 4 -2 -1 3 3 1 1 12 9 3 1 1 0 -0 -0 -2
3 1 -1 2 -1 2 0 2 3 -1 -0 4 19 -0 5 1 -0 -2 -0 0 1 2 -2 0 -0 -0 -1 1 1 1 2 3 -1 -2 -2 1 -0 -1 3 4 3 -0 -1 -1 3 1 -3
-1 0 1 -1 0 1 0 2 2 -2 -1 3 11 -1 -11 -1 -3 1 2 -1 1 1 1 -0 4 -1 -3 -0 1 1 2 5 3 -3 2 0 0 -1 -1 0 1 2 1 -1 4 -4 5
0 0 0 2 -2 0 -1 2 2 -1 -0 1 12 2 -3 2 1 4 1 -2 -2 3 -4 2 1 -0 -1 -4 -4 -1 -3 -1 -2 3 -0 1 2 -0 -1 -1 0 0 -1 0 -0 -2 -0
2 0 1 2 -1 -0 0 2 1 1 1 11 -7 -3 4 -1 1 4 -1 -5 -3 -3 -5 -2 -3 -5 -4 10 -1 4 0 -1 -0 -2 0 -2 -0 -0 -1 0 -1 -1 -2 -1 -1 -0 6
1 -1 1 1 -1 -1 0 1 1 1 0 -2 -5 3 -5 -1 0 -4 1 1 -0 -3 -5 5 -1 -7 11 -6 -11 -11 -5 0 -1 1 -3 -1 -1 -1 -1 -1 -3 6 -1 3 4 -1 -1
-0 -1 0 2 -0 -1 -1 0 1 1 -0 -0 -1 -1 -2 -1 -3 5 2 -1 3 -1 0 -8 6 -4 -2 3 -1 -1 -1 -4 -3 1 1 -2 -1 -1 1 1 -7 -9 1 -1 2 -11 1
-0 0 -0 -0 -2 -2 -1 -0 -1 1 0 -1 2 -0 -2 -8 -4 -3 0 -6 -3 1 -1 2 2 4 3 -2 -2 -2 -0 -1 5 6 -0 -2 -2 2 0 1 -1 -0 3 -2 1 -2 2
-1 -0 -1 -0 -1 -1 -0 -0 -3 1 1 -1 1 1 2 -6 5 9 -2 -9 -4 1 -2 1 -0 -1 5 -0 -1 -1 1 1 -0 -1 -0 -1 0 -1 0 -0 -6 -4 2 -3 7 6 1
2 1 0 1 -1 -2 -2 -2 -1 -1 2 -0 -1 2 1 1 -0 -1 -1 7 5 7 -3 7 -0 2 -0 -3 -1 -1 -1 -3 -0 -3 -5 -5 -3 -1 1 2 -3 -2 -1 -2 7 -1 1
2 1 -0 -0 -0 -2 -2 -3 -1 0 1 -1 1 2 1 0 -6 -8 -4 -3 -2 5 2 4 -1 -3 -4 -1 0 -1 0 -1 -0 -2 2 4 -8 -5 -11 -12 -4 9 -6 -3 -4 -3 1
Height
1502 1501 1501 1500 1499 1498 1496 1493 1491 1490 1489 1488 1488 1488 1488 1489 1491 1493 1495 1497 1500 1502 1504 1505 1505 1506 1507 1506 1503 1502 1501 1501 1501 1501 1501 1499 1497 1494 1492 1493 1497 1498 1501 1503 1507 1511 1510
1500 1499 1498 1497 1497 1495 1493 1491 1489 1487 1486 1486 1486 1486 1487 1488 1490 1492 1495 1497 1500 1502 1504 1505 1506 1506 1506 1507 1502 1503 1502 1501 1501 1501 1500 1497 1495 1494 1492 1493 1495 1499 1502 1506 1508 1509 1511
1498 1497 1496 1495 1495 1493 1491 1489 1488 1486 1485 1484 1485 1485 1486 1488 1491 1493 1495 1498 1501 1503 1504 1505 1506 1506 1507 1505 1503 1503 1504 1503 1502 1501 1498 1499 1498 1497 1496 1498 1500 1501 1504 1504 1505 1507 1509
1496 1495 1494 1493 1493 1491 1490 1489 1487 1486 1484 1484 1485 1485 1486 1488 1491 1494 1497 1499 1502 1504 1504 1505 1507 1507 1505 1504 1502 1504 1504 1504 1504 1503 1502 1502 1501 1498 1499 1500 1502 1501 1499 1504 1500 1503 1506
1494 1494 1493 1492 1492 1490 1489 1488 1488 1487 1486 1486 1486 1486 1488 1490 1493 1496 1499 1501 1503 1504 1505 1506 1507 1507 1502 1502 1503 1503 1504 1503 1504 1504 1503 1502 1502 1500 1502 1501 1503 1500 1504 1499 1502 1501 1501
1492 1492 1492 1491 1491 1489 1489 1488 1489 1488 1488 1488 1489 1489 1490 1492 1495 1498 1501 1503 1505 1506 1507 1507 1507 1511 1502 1501 1502 1503 1504 1504 1503 1503 1504 1503 1499 1497 1496 1496 1512 1508 1498 1494 1497 1501 1504
1490 1491 1491 1490 1490 1489 1489 1489 1490 1489 1489 1490 1491 1492 1493 1495 1498 1500 1502 1504 1508 1509 1506 1501 1500 1501 1500 1502 1501 1503 1504 1505 1504 1503 1499 1498 1497 1504 1502 1501 1500 1498 1496 1496 1496 1502 1506
1488 1489 1489 1490 1489 1489 1489 1489 1490 1490 1492 1493 1494 1494 1496 1498 1500 1501 1503 1503 1501 1503 1504 1503 1502 1502 1502 1501 1502 1504 1505 1504 1502 1499 1496 1498 1504 1505 1502 1501 1503 1501 1502 1501 1498 1503 1508
1486 1488 1488 1489 1488 1489 1489 1490 1491 1492 1493 1495 1496 1497 1499 1500 1501 1503 1502 1503 1501 1501 1501 1504 1503 1503 1504 1502 1503 1504 1505 1501 1499 1496 1496 1505 1508 1507 1506 1505 1507 1502 1508 1513 1514 1506 1504
1484 1486 1487 1487 1487 1488 1488 1490 1491 1493 1495 1497 1498 1499 1501 1502 1506 1505 1505 1503 1501 1503 1500 1506 1502 1504 1505 1503 1506 1506 1505 1505 1499 1497 1499 1507 1510 1509 1507 1509 1513 1512 1514 1516 1515 1515 1516
1483 1485 1486 1486 1486 1487 1488 1489 1491 1493 1496 1498 1500 1501 1502 1504 1503 1506 1505 1504 1504 1505 1517 1504 1502 1504 1504 1504 1504 1506 1507 1504 1501 1504 1506 1513 1511 1511 1511 1518 1517 1516 1516 1515 1514 1514 1511
1482 1484 1485 1485 1486 1486 1487 1488 1490 1493 1496 1498 1500 1502 1503 1505 1505 1505 1505 1506 1508 1512 1520 1503 1501 1501 1503 1503 1503 1505 1506 1506 1506 1503 1505 1511 1514 1516 1517 1517 1517 1515 1512 1510 1509 1510 1526
1480 1482 1484 1484 1485 1485 1486 1487 1489 1492 1495 1498 1501 1502 1504 1505 1506 1507 1507 1509 1511 1515 1500 1503 1501 1500 1502 1506 1503 1503 1505 1506 1507 1513 1512 1510 1515 1517 1519 1514 1513 1510 1510 1525 1532 1527 1532
1479 1481 1483 1484 1484 1484 1484 1485 1487 1490 1494 1498 1501 1503 1504 1506 1506 1507 1509 1509 1515 1495 1496 1493 1499 1501 1505 1505 1508 1505 1505 1513 1512 1510 1505 1513 1531 1519 1521 1522 1523 1517 1518 1535 1548 1543 1532
1477 1480 1482 1483 1483 1483 1483 1484 1486 1489 1493 1497 1501 1503 1505 1506 1508 1508 1510 1513 1507 1496 1493 1498 1500 1505 1509 1508 1508 1509 1514 1519 1522 1517 1517 1518 1525 1523 1525 1525 1523 1523 1531 1526 1537 1541 1547
1476 1478 1481 1483 1482 1483 1483 1484 1486 1488 1492 1497 1501 1504 1506 1507 1508 1509 1509 1508 1496 1495 1494 1497 1504 1500 1506 1507 1510 1507 1514 1522 1523 1523 1520 1523 1529 1526 1525 1525 1525 1524 1526 1535 1535 1554 1556
1475 1477 1480 1482 1482 1483 1483 1484 1485 1488 1492 1497 1500 1502 1503 1506 1508 1509 1506 1502 1499 1501 1500 1499 1498 1504 1499 1508 1505 1510 1517 1526 1524 1524 1524 1525 1526 1532 1526 1529 1529 1527 1527 1532 1534 1543 1554
1473 1476 1479 1481 1482 1483 1483 1484 1486 1488 1492 1497 1499 1500 1501 1505 1509 1504 1498 1497 1501 1505 1504 1503 1501 1502 1504 1509 1511 1516 1520 1524 1529 1527 1529 1532 1534 1540 1531 1531 1531 1530 1532 1533 1550 1550 1550
1472 1476 1478 1481 1482 1482 1483 1484 1486 1489 1492 1495 1496 1498 1501 1504 1504 1505 1500 1501 1501 1504 1504 1505 1508 1509 1508 1511 1523 1518 1527 1533 1533 1532 1536 1535 1536 1543 1537 1537 1533 1532 1531 1536 1544 1555 1557
1470 1475 1478 1480 1481 1482 1483 1484 1486 1489 1492 1494 1492 1497 1501 1504 1499 1498 1499 1503 1506 1505 1508 1507 1509 1511 1512 1516 1516 1522 1531 1535 1536 1537 1538 1538 1532 1542 1548 1539 1533 1537 1533 1532 1535 1551 1551
1469 1473 1476 1480 1481 1482 1483 1485 1486 1489 1491 1494 1490 1491 1494 1500 1499 1495 1496 1497 1502 1509 1507 1509 1510 1510 1514 1520 1519 1524 1528 1535 1538 1539 1538 1537 1544 1543 1541 1537 1535 1534 1533 1532 1533 1533 1545
1468 1472 1476 1479 1480 1482 1483 1485 1486 1489 1491 1493 1490 1491 1493 1492 1495 1495 1497 1497 1498 1501 1507 1508 1508 1510 1513 1523 1523 1525 1525 1529 1532 1538 1537 1542 1550 1556 1550 1535 1536 1539 1534 1531 1529 1527 1528
1467 1471 1475 1478 1480 1482 1484 1485 1486 1488 1491 1492 1491 1492 1492 1496 1494 1496 1500 1499 1498 1504 1509 1506 1507 1512 1520 1523 1526 1528 1531 1533 1534 1537 1542 1551 1554 1553 1552 1550 1550 1549 1539 1528 1526 1525 1530
1465 1470 1473 1477 1479 1482 1483 1484 1486 1488 1490 1491 1492 1493 1494 1498 1495 1497 1498 1497 1499 1507 1509 1508 1512 1518 1528 1529 1532 1534 1537 1538 1538 1541 1543 1557 1558 1560 1560 1557 1554 1532 1529 1526 1529 1526 1528
1464 1468 1472 1476 1479 1481 1483 1484 1486 1487 1489 1490 1491 1493 1495 1502 1498 1497 1499 1500 1504 1509 1512 1517 1520 1523 1527 1530 1535 1542 1546 1551 1549 1543 1544 1549 1552 1565 1563 1555 1545 1535 1531 1534 1537 1538 1533
1463 1467 1471 1475 1478 1480 1482 1484 1486 1487 1489 1490 1492 1493 1496 1497 1498 1498 1498 1503 1509 1513 1520 1525 1526 1527 1529 1533 1539 1550 1539 1536 1545 1548 1550 1552 1554 1555 1566 1566 1557 1533 1531 1535 1536 1540 1539
1462 1466 1470 1474 1477 1480 1482 1484 1486 1488 1489 1491 1493 1494 1495 1497 1499 1499 1501 1506 1511 1514 1517 1524 1527 1529 1530 1537 1548 1539 1535 1530 1539 1549 1557 1559 1558 1559 1559 1562 1550 1534 1533 1536 1544 1545 1542
1461 1465 1469 1472 1475 1478 1481 1484 1486 1488 1490 1491 1493 1494 1495 1497 1500 1502 1504 1506 1509 1511 1517 1521 1527 1529 1532 1542 1543 1537 1543 1536 1535 1531 1545 1549 1554 1560 1557 1558 1552 1534 1534 1543 1540 1541 1541
1460 1464 1468 1471 1475 1478 1481 1483 1486 1488 1490 1492 1495 1495 1496 1498 1501 1502 1504 1506 1508 1509 1513 1519 1520 1522 1526 1531 1536 1536 1543 1544 1540 1540 1522 1533 1532 1535 1539 1536 1529 1529 1531 1534 1535 1538 1539